Terminal Aerodrome Forecast
Issued by NWS

Home | Current Version | Previous Version | Graphics & Text | Print | Product List | Glossary On
Versions: 1 2 3 4 5 6 7 8 9 10 11 12 13 14 15 16 17 18 19
000
FTUS43 KICT 061735
TAFSLN
TAF
KSLN 061735Z 0618/0718 28012KT P6SM VCTS SCT030CB OVC050
     FM062000 34014G23KT P6SM VCTS BKN035CB OVC050
      TEMPO 0620/0624 VRB20G35KT 3SM +TSRA OVC030CB
     FM070200 02015KT P6SM BKN035 OVC080
     FM071000 06012KT P6SM SCT030 BKN070=

USA.gov is the U.S. government's official web portal to all federal, state and local government web resources and services.